User: anonymous   Login
Location: Maddington
(51.2000°N, 1.9167°W)
Time: 07:56:02
(UTC+00:00)
Language:

ERS-1 Rocket - Orbit

View from above orbital plane
View from above orbital plane
View from above satellite
View from above satellite

Ground track
Ground track

The orbit data is extracted from the following two-line orbital elements,

1 21610U 91050F   20336.77565053  .00000080  00000-0  38680-4 0  9994
2 21610  98.4486  44.1953 0004324 112.6748  34.9746 14.40924423541791
Epoch (UTC): 01 December 2020 18:36:56
Eccentricity: 0.0004324
inclination: 98.4486°
perigee height: 752 km
apogee height: 758 km
right ascension of ascending node: 44.1953°
argument of perigee: 112.6748°
revolutions per day: 14.40924423
mean anomaly at epoch: 34.9746°
orbit number at epoch: 54179

The dashed part of the orbit path shows where the satellite is in the earth's shadow,  

DLR